Location: New Town
(33.2710°N, 90.7534°W)
Time: 12:26:49
(UTC+00:00)

Transit 2A - All Passes

Search period start: 13 May 2021 00:00
Search period end: 23 May 2021 00:00
Orbit: 602 x 957 km, 66.7° (Epoch: 12 May)

Date Brightness Start Highest point End Pass type
(mag) Time Alt. Az. Time Alt. Az. Time Alt. Az.
13 May - 06:33:30 10° S 06:37:56 39° ESE 06:42:04 10° NE visible
13 May - 08:18:09 10° W 08:21:07 17° NW 08:24:01 10° NNW visible
13 May - 15:24:34 10° NNE 15:26:59 14° NE 15:29:30 10° E daylight
13 May - 17:05:41 10° NW 17:10:22 61° WSW 17:15:32 10° SSE daylight
14 May - 06:00:02 10° SSE 06:03:49 24° ESE 06:07:26 10° NE visible
14 May - 07:42:57 10° WSW 07:46:48 26° WNW 07:50:31 10° N visible
14 May - 16:31:28 10° NNW 16:36:13 85° ENE 16:41:28 10° SSE daylight
15 May - 05:27:09 10° SE 05:29:46 15° ESE 05:32:19 10° ENE visible
15 May - 07:08:10 10° SW 07:12:34 41° WNW 07:16:44 10° N visible
15 May - 15:57:24 10° NNW 16:02:02 53° ENE 16:07:07 10° SE daylight
15 May - 17:42:18 10° WNW 17:44:49 14° WSW 17:47:27 10° SW daylight
16 May - 06:33:43 10° SSW 06:38:22 68° WNW 06:42:45 10° NNE visible
16 May - 15:23:30 10° N 15:27:49 34° ENE 15:32:30 10° SE daylight
16 May - 17:07:01 10° WNW 17:10:47 22° WSW 17:14:47 10° SSW daylight
17 May - 05:59:31 10° SSW 06:04:12 73° ESE 06:08:36 10° NNE visible
17 May - 14:49:48 10° N 14:53:33 23° ENE 14:57:33 10° ESE daylight
17 May - 16:32:17 10° NW 16:36:41 35° WSW 16:41:27 10° S daylight
18 May - 05:25:38 10° S 05:30:04 43° ESE 05:34:16 10° NE visible
18 May - 07:10:39 10° W 07:13:19 15° NW 07:15:57 10° NNW visible
18 May - 14:16:26 10° NNE 14:19:13 15° NE 14:22:07 10° E daylight
18 May - 15:57:51 10° NW 16:02:33 56° WSW 16:07:44 10° S daylight
19 May - 04:52:05 10° SSE 04:55:59 26° ESE 04:59:41 10° NE visible
19 May - 06:35:19 10° WSW 06:39:00 24° WNW 06:42:33 10° N visible
19 May - 15:23:36 10° NNW 15:28:24 88° WSW 15:33:42 10° SSE daylight
20 May - 04:19:04 10° SE 04:21:56 16° ESE 04:24:41 10° ENE visible
20 May - 06:00:29 10° SW 06:04:44 37° WNW 06:08:49 10° N visible
20 May - 14:49:30 10° NNW 14:54:14 59° ENE 14:59:26 10° SE daylight
20 May - 16:34:46 10° W 16:37:00 13° WSW 16:39:19 10° SW daylight
21 May - 05:25:57 10° SW 05:30:32 61° WNW 05:34:52 10° NNE visible
21 May - 14:15:34 10° N 14:20:01 38° ENE 14:24:52 10° SE daylight
21 May - 15:59:18 10° WNW 16:02:57 21° WSW 16:06:51 10° SSW daylight
22 May - 04:51:43 10° SSW 04:56:22 81° ESE 05:00:45 10° NNE visible
22 May - 13:41:48 10° N 13:45:45 25° ENE 13:50:00 10° ESE daylight
22 May - 15:24:30 10° NW 15:28:52 32° WSW 15:33:35 10° S daylight
